Regional Weather Roundup
Issued by NWS Goodland, KS

Home | Current Version | Previous Version | Graphics & Text | Print | Product List | Glossary On
Versions: 1 2 3 4 5 6 7 8 9 10 11 12 13 14 15 16 17 18 19 20 21 22 23 24 25 26 27 28 29 30 31 32 33 34 35 36 37 38 39 40 41 42 43 44 45 46 47 48 49 50
000
ASUS43 KGLD 221108
RWRGLD

GOODLAND FORECAST AREA HOURLY WEATHER ROUNDUP
NATIONAL WEATHER SERVICE GOODLAND KS
500 AM MDT MON SEP 22 2014

...OFFICIAL OBSERVATIONS...

CITY           SKY/WX    TMP DP  RH WIND       PRES   REMARKS
GOODLAND KS    CLOUDY    53  42  66 S10       30.31F
HILL CITY KS   MOCLDY    54  45  71 CALM      30.30S
IMPERIAL NEB   CLOUDY    58  41  53 SE9       30.27F
MCCOOK NEB     CLOUDY    52  45  77 CALM      30.30R
AKRON CO       PTCLDY    58  41  53 S17       30.24F
BURLINGTON CO  CLEAR     55  40  56 S10       30.29F
LIMON CO       PTCLDY    50  40  68 SE8       30.29F
$$

...UNOFFICIAL OBSERVATIONS...

CITY           SKY/WX    TMP DP  RH WIND       PRES   REMARKS
COLBY KS       CLEAR     57  45  62 S9        30.31R
GOVE KS          N/A     54  32  43 MISG        N/A
NORTON KS      CLEAR     52  39  62 E3        30.29S
SHARON SPRINGS   N/A     53  44  72 S12         N/A
TRIBUNE KS     CLEAR     54  46  76 S8        30.33
WAKEENEY KS      N/A     57  41  56 MISG        N/A
TRENTON NEB      N/A     55  32  41 SE7         N/A
KIT CARSON CO    N/A     53  41  64 N6          N/A
YUMA CO          N/A     58  41  53 S9          N/A
$$


USA.gov is the U.S. government's official web portal to all federal, state and local government web resources and services.